sat.trackr.live / text

‹ back to catalog

KUIPER-00094

NORAD 64839 · 2025-151Z

PAYLOAD ACTIVE UNKNOWN

§ Identity

Operator
Country
US
Launch date
2025-07-16
Launch site
AFETR
Launch vehicle
Mass (kg)
RCS (m²)

External: N2YO · Heavens-Above · Gunter

§ Orbital elements

Epoch: 2026-09-21T18:06:32.338080Z

Period
97.30 min
Inclination
51.9040°
Eccentricity
0.0001146
Mean motion
14.79929867 rev/d
Perigee alt
628.7 km
Apogee alt
630.3 km
Semi-major
7,007.7 km
B*
2.5460e-4
RAAN
101.1924°
Arg perigee
114.3097°
Mean anomaly
245.7985°
Rev number
6,507

§ Raw data

KUIPER-000941 64839U 25151Z   26264.75454095  .00001720  00000+0  25460-3 0  99922 64839  51.9040 101.1924 0001146 114.3097 245.7985 14.79929867 65076

JSON: /api/v1/satellites/64839 · /tle

For live sub-satellite position, see the globe view (requires WebGL).

§ Visibility from observer

Set your observer location to see the next 7 days of passes ≥ 10°. The values pass through the URL so the page stays shareable.

No JS? Fill the form by hand. The geolocation button needs JavaScript.